COSMOS 1275 DEB, 42188

Orbit data source: Space-Track

COSMOS 1275 DEB, 42188 is space debris in LEO originally from a launch on Thu, 04 Jun 1981 UTC launched from the Plesetsk Missile And Space Complex (PKMTR). Debris objects in space refer to the collection of defunct objects orbiting the Earth. Examples of debris include non-operational satellites, rocket bodies, and fragments generated from explosions, collisions, or faulty payload assembly.

Loading next visibility...
Identifier
42188, 1981-053TC
Orbit
LEO
Country
Flag of CISCIS
Related business
Manufacturer
Unknown
Mission
Spacecraft
Bus & Motor
Unknown
Mass
Unknown
Launch date (UTC)
1981-06-04 (45 years ago)
Launch vehicle
Unknown
Launch site
Plesetsk Missile And Space Complex (PKMTR)
Object type
Payload
Rocket body
Debris
Shape & HBR
Unknown shape, 0.1 m
Radar Cross Section
Medium (>0.1 m² and <1 m²)

Expand to show TLE details & history
Last TLE update: 1 day ago

TLE from 1 day ago
0 COSMOS 1275 DEB
1 42188U 81053TC  26235.25501444  .00001569  00000-0  77034-3 0  9998
2 42188  82.8463  72.7294 0048639 275.3787  84.1844 14.16607330654067
Epoch: 2026-08-23T06:07Z
TLE epoch observation values (Epoch: 2026-08-23T06:07:13.247Z)
Latitude
-0.00004°
Longitude
9.3705°
Altitude
836.417 km
Speed
7.436 km/s
True Right ascension
04h 50m 55s
True Declination
0° 00' 00"
Sunlit
Object was in daylight at epoch
Visualization orbit readout
Latitude
Unknown
Longitude
Unknown
Altitude
Unknown
Speed
Unknown
Apparent Right ascension
Unknown
Apparent Declination
Unknown
Sunlit
N/A
Visualization observer readout
Local Sidereal Time
02:29:48
Azimuth
Unknown
Elevation
Unknown
Doppler factor
Unknown
Orbital elements
Apogee altitude
869.023 km
Perigee altitude
798.866 km
Semi-major axis
7,212.082 km
Eccentricity
0.00486
Inclination
82.8463°
RAAN
72.7294°
Arg. of periapsis
275.3787°
True anomaly
84.73923°
Mean anomaly
84.1844°
Eccentric anomaly
84.46178°
Mean motion
3.54366 °/min
Orbital period
101.59 mins
BSTAR
0.00077034
Loading maneuver chart data...
Computing Atmospheric mass density...

Documentation

Showing up to 5 results
|